This site uses a module created by best online poker sites.

BSB police report ending August 3, 2018

Print
"08/02/2018","00:19","218CR0019273","ASSIST OTHER AGENCY","ASSIST OTHER AGENCY","I15 MM 125 SB","",""
"08/02/2018","00:21","218CR0019274","T/S","T/S","BUS TRANSFER STATION","",""
"08/02/2018","00:44","218CR0019275","SUSPICIOUS ACTIVITY","SUSPICIOUS ACTIVITY","CORNELL AND FARRAGUT","",""
"08/02/2018","00:48","218CR0019276","DISTURBANCE","DISTURBANCE","1653 HARRISON AVE PAIR A DICE","",""
"08/02/2018","01:26","218CR0019277","DISTURBANCE","DISTURBANCE","707 SILVERBOW HOMES","",""
"08/02/2018","01:52","218CR0019278","ACCIDENT","ACCIDENT","CHULA AND PARROTT","",""
"08/02/2018","01:57","218CR0019279","T/S","T/S","HARRISON AND DUNDEE","",""
"08/02/2018","02:36","218CR0019280","FRAUD","FRAUD","531 S MONTANA","",""
"08/02/2018","03:14","218CR0019281","ACCIDENT","POSSESS DRUG PARAPHERNALIA","BASIN CR RD // HERMAN GLCH","ARREST(s) MADE",""
"08/02/2018","04:25","218CR0019282","WELFARE CHECK","WELFARE CHECK","2709 FLORAL BLVD","",""
"08/02/2018","05:59","218CR0019283","SUSPICIOUS ACTIVITY","SUSPICIOUS ACTIVITY","CONTINENTAL DR AND MEADOW VIEW","",""
"08/02/2018","06:35","218CR0019284","ALARM - FIRE","ALARM - FIRE","300 MOUNT HIGHLAND DR","",""
"08/02/2018","07:01","218CR0019285","ABANDONED VEHICLE","ABANDONED VEHICLE","206 W GRANITE","",""
"08/02/2018","07:27","218CR0019286","CIVIL PAPER SERVICE","CIVIL PAPER SERVICE","1119 CALEDONIA","",""
"08/02/2018","07:38","218CR0019287","CIVIL PAPER SERVICE","CIVIL PAPER SERVICE","3023 WHARTON","",""
"08/02/2018","07:46","218CR0019288","CIVIL PAPER SERVICE","CIVIL PAPER SERVICE","2031 ELM","",""
"08/02/2018","07:46","218CR0019289","T/S","T/S","OTTAWA ANDFARRAGUT","",""
"08/02/2018","07:47","218CR0019290","CIVIL PAPER SERVICE","CIVIL PAPER SERVICE","122015 N BROWNS GULCH RD","",""
"08/02/2018","07:49","218CR0019294","SUSPICIOUS ACTIVITY","SUSPICIOUS ACTIVITY","800 S MONTANA","",""
"08/02/2018","07:51","218CR0019291","CIVIL PAPER SERVICE","CIVIL PAPER SERVICE","420 W PARK","",""
"08/02/2018","07:51","218CR0019292","CIVIL PAPER SERVICE","CIVIL PAPER SERVICE","1724 THOMAS","",""
"08/02/2018","07:53","218CR0019293","CIVIL PAPER SERVICE","CIVIL PAPER SERVICE","115 S EXCELSIOR","",""
"08/02/2018","08:03","218CR0019295","CIVIL PAPER SERVICE","CIVIL PAPER SERVICE","111 W PLATINUM ST","",""
"08/02/2018","08:08","218CR0019296","CIVIL PAPER SERVICE","CIVIL PAPER SERVICE","910EVANS #H2","",""
"08/02/2018","08:23","218CR0019297","CIVIL PAPER SERVICE","CIVIL PAPER SERVICE","1021 1/2 E FRONT","",""
"08/02/2018","08:26","218CR0019298","CIVIL PAPER SERVICE","CIVIL PAPER SERVICE","3235 WHARTON","",""
"08/02/2018","08:47","218CR0019299","DETENTION BUSINESS","DETENTION BUSINESS","************","",""
"08/02/2018","08:48","218CR0019300","CIVIL PAPER SERVICE","CIVIL PAPER SERVICE","14 SOUTH JACKSON","",""
"08/02/2018","08:50","218CR0019301","THEFT","DECEPTIVE PRACT - CREDIT CARD","606 UTAH","",""
"08/02/2018","08:54","218CR0019302","CIVIL PAPER SERVICE","CIVIL PAPER SERVICE","665 LITTLE BASIN CREEK RD","",""
"08/02/2018","08:55","218CR0019303","CIVIL PAPER SERVICE","CIVIL PAPER SERVICE","3100 HARRISON AVE","",""
"08/02/2018","08:56","218CR0019304","CIVIL PAPER SERVICE","CIVIL PAPER SERVICE","323 S MONTANA #1","",""
"08/02/2018","08:59","218CR0019305","T/S","T/S @ ","","",""
"08/02/2018","09:01","218CR0019306","CIVIL PAPER SERVICE","CIVIL PAPER SERVICE","1714 SAMPSON","",""
"08/02/2018","09:06","218CR0019308","CIVIL PAPER SERVICE","CIVIL PAPER SERVICE","1442 DEWEY","",""
"08/02/2018","09:07","218CR0019307","SUSPICIOUS ACTIVITY","CRIMINAL CONTEMPT","1032 DELAWARE ST","ARREST(s) MADE",""
"08/02/2018","09:09","218CR0019310","RESTRAINING ORDER VIOLATION","RESTRAINING ORDER VIOLATION","************","",""
"08/02/2018","09:09","218CR0019309","CIVIL PAPER SERVICE","CIVIL PAPER SERVICE","1813 WILSON","",""
"08/02/2018","09:13","218CR0019311","CIVIL PAPER SERVICE","CIVIL PAPER SERVICE","1818 A ST","",""
"08/02/2018","09:20","218CR0019313","ABANDONED VEHICLE","ABANDONED VEHICLE","627 W GRANITE","",""
"08/02/2018","09:23","218CR0019312","CIVIL PAPER SERVICE","CIVIL PAPER SERVICE","708 MAJORS","",""
"08/02/2018","09:25","218CR0019314","CIVIL PAPER SERVICE","CIVIL PAPER SERVICE","2900 S MONTANA #13","",""
"08/02/2018","09:32","218CR0019315","CIVIL PAPER SERVICE","CIVIL PAPER SERVICE","617 W IRON","",""
"08/02/2018","09:35","218CR0019316","CIVIL PAPER SERVICE","CIVIL PAPER SERVICE","2103 5 MILE RD","",""
"08/02/2018","09:39","218CR0019317","CIVIL STANDBY","CIVIL STANDBY","2709 FLORAL BLVD","",""
"08/02/2018","09:41","218CR0019318","CIVIL PAPER SERVICE","CIVIL PAPER SERVICE","850 W SILVER","",""
"08/02/2018","09:41","218CR0019319","CIVIL STANDBY","CIVIL STANDBY","2709 FLORAL","",""
"08/02/2018","09:47","218CR0019320","CIVIL PAPER SERVICE","CIVIL PAPER SERVICE","221 N CLARK","",""
"08/02/2018","09:54","218CR0019321","LOST CHILD","LOST CHILD","************","",""
"08/02/2018","09:59","218CR0019322","CIVIL PAPER SERVICE","CIVIL PAPER SERVICE","1911 PORTER","",""
"08/02/2018","10:31","218CR0019323","STOLEN VEHICLE","MOTOR VEHICLE THEFT","910 S MONTANA","",""
"08/02/2018","10:36","218CR0019324","INFORMATION ONLY","INFORMATION ONLY","225 N ALASKA","",""
"08/02/2018","10:56","218CR0019325","ASSIST OTHER AGENCY","ASSIST OTHER AGENCY","CONTINENTAL DR EXIT EB","",""
"08/02/2018","11:13","218CR0019326","CIVIL PAPER SERVICE","CIVIL PAPER SERVICE","3901 HARRISON","",""
"08/02/2018","11:56","218CR0019327","SUSPICIOUS ACTIVITY","SUSPICIOUS ACTIVITY","225 N ALASKA","",""
"08/02/2018","11:57","218CR0019328","CIVIL PAPER SERVICE","CIVIL PAPER SERVICE","563 S ARIZONA","",""
"08/02/2018","12:02","218CR0019329","TRAFFIC","TRAFFIC","CENTENNIAL AVE","",""
"08/02/2018","12:14","218CR0019330","CIVIL PAPER SERVICE","CIVIL PAPER SERVICE","626 S WASHINGTON","",""
"08/02/2018","12:23","218CR0019331","CIVIL PAPER SERVICE","CIVIL PAPER SERVICE","848 W BROADWAY","",""
"08/02/2018","12:27","218CR0019332","CIVIL PAPER SERVICE","CIVIL PAPER SERVICE","849 W BROADWAY #C","",""
"08/02/2018","12:28","218CR0019333","CIVIL PAPER SERVICE","CIVIL PAPER SERVICE","2711 HARRISON AVE","",""
"08/02/2018","12:30","218CR0019334","CIVIL PAPER SERVICE","CIVIL PAPER SERVICE","1925 DEWEY BLVD","",""
"08/02/2018","12:33","218CR0019335","ACCIDENT","ACCIDENT","3100 BLK HARRISON","",""
"08/02/2018","12:34","218CR0019336","ALL OTHER","ALL OTHER","","",""
"08/02/2018","12:56","218CR0019337","CIVIL PAPER SERVICE","CIVIL PAPER SERVICE","122015 N BROWNS GULCH RD","",""
"08/02/2018","13:20","218CR0019338","TRAFFIC","TRAFFIC","I90 AT MONTANA ST EXIT WB","",""
"08/02/2018","13:30","218CR0019339","DETENTION BUSINESS","DETENTION BUSINESS","************","",""
"08/02/2018","13:32","218CR0019340","BURGLARY","BURGLARY","1 BEULAH","",""
"08/02/2018","13:35","218CR0019341","CIVIL PAPER SERVICE","CIVIL PAPER SERVICE","2825 ELM","",""
"08/02/2018","13:45","218CR0019342","ALARM - FIRE","ALARM - FIRE","600 S MAIN ST","",""
"08/02/2018","13:54","218CR0019343","T/S","T/S @ IDAHO AND GRANITE","IDAHO AND GRANITE","",""
"08/02/2018","13:55","218CR0019344","CIVIL PAPER SERVICE","CIVIL PAPER SERVICE","50 W BROADWAY #303","",""
"08/02/2018","14:31","218CR0019345","FIRE - VEHICLE","FIRE - VEHICLE","4835 HARRISON AVE","",""
"08/02/2018","14:35","218CR0019346","ALL OTHER","PROTECTIVE CUSTODY","50 W BROADWAY # 303","ARREST(s) MADE",""
"08/02/2018","14:37","218CR0019347","ASSIST OTHER AGENCY","BUY/POSSESS STOLEN PROPERTY","FLYING J 122000 BROWNS GLCH RD","ARREST(s) MADE",""
"08/02/2018","14:47","218CR0019348","THEFT","THEFT, SHOPLIFT","3100 HARRISON","",""
"08/02/2018","14:58","218CR0019349","CIVIL PAPER SERVICE","CIVIL PAPER SERVICE","3901 HARRISON","",""
"08/02/2018","15:08","218CR0019350","CIVIL PAPER SERVICE","CIVIL PAPER SERVICE","2900 S MONTANA #13","",""
"08/02/2018","15:14","218CR0019351","CIVIL PAPER SERVICE","CIVIL PAPER SERVICE","910 EVANS B 4","",""
"08/02/2018","15:20","218CR0019352","ALL OTHER","ALL OTHER","ANIMAL SHELTER","",""
"08/02/2018","15:30","218CR0019353","MEDICAL - EMERGENCY","MEDICAL - EMERGENCY","1323 ROCKER RD","",""
"08/02/2018","15:31","218CR0019354","FIRE - OTHER","FIRE - OTHER","MISSOULA AND MONTANA","",""
"08/02/2018","15:37","218CR0019355","ALL OTHER","ALL OTHER","FLYING J 122000 BROWNS GLCH RD","",""
"08/02/2018","15:42","218CR0019356","WANTED PERSON","WANTED PERSON","************","",""
"08/02/2018","15:42","218CR0019358","MEDICAL - EMERGENCY","MEDICAL - EMERGENCY","116026 S BUXTON RD","",""
"08/02/2018","15:43","218CR0019357","INFORMATION ONLY","INFORMATION ONLY","BUTTE","",""
"08/02/2018","15:48","218CR0019359","SUSPICIOUS ACTIVITY","SUSPICIOUS ACTIVITY","1700 HARRISON AVE","",""
"08/02/2018","15:48","218CR0019360","STOLEN VEHICLE","MOTOR VEHICLE THEFT","3033 BUSCH #31","",""
"08/02/2018","15:49","218CR0019361","HIT AND RUN","HIT AND RUN","1760 HARRISON","",""
"08/02/2018","15:58","218CR0019362","ALL OTHER","ALL OTHER","","",""
"08/02/2018","16:22","218CR0019363","THEFT","THEFT FROM MOTOR VEHICLE","2405 PINE","",""
"08/02/2018","16:31","218CR0019364","ACCIDENT","ACCIDENT","DEWEY BLVD AND HARRISON AVE","",""
"08/02/2018","16:41","218CR0019365","CIVIL PAPER SERVICE","CIVIL PAPER SERVICE","2425 PINE","",""
"08/02/2018","16:47","218CR0019366","HIT AND RUN","HIT AND RUN","SAFEWAY / FRONT ST","",""
"08/02/2018","16:47","218CR0019367","CIVIL PAPER SERVICE","CIVIL PAPER SERVICE","2031 ELM","",""
"08/02/2018","16:51","218CR0019368","LED BUSINESS","CRIMINAL CONTEMPT","155 W GRANITE","ARREST(s) MADE",""
"08/02/2018","16:53","218CR0019369","ALL OTHER","ALL OTHER","4600 BLK HARRISON","",""
"08/02/2018","16:56","218CR0019370","SUSPICIOUS ACTIVITY","SUSPICIOUS ACTIVITY","800 BLK CENTENNIAL","",""
"08/02/2018","17:03","218CR0019371","ALL OTHER","ALL OTHER","2941 BUSCH","",""
"08/02/2018","17:04","218CR0019372","CIVIL PAPER SERVICE","CIVIL PAPER SERVICE","225 N ALASKA","",""
"08/02/2018","17:05","218CR0019373","THEFT","THEFT, SHOPLIFT","3901 HARRISON","",""
"08/02/2018","17:12","218CR0019374","T/S","AGGRAVATED DUI","HARRISON AND PRINCETON","ARREST(s) MADE",""
"08/02/2018","17:30","218CR0019375","ALL OTHER","ALL OTHER","3541 HARTFORD","",""
"08/02/2018","17:31","218CR0019376","JUVENILE MISC","JUVENILE MISC","************","",""
"08/02/2018","17:35","218CR0019377","JUVENILE MISC","JUVENILE MISC","************","",""
"08/02/2018","18:00","218CR0019378","MISSING PERSON","MISSING PERSON","************","",""
"08/02/2018","18:10","218CR0019379","DISTURBANCE","CRIMINAL CONTEMPT","420 VIRGINIA ST","ARREST(s) MADE",""
"08/02/2018","18:18","218CR0019380","MEDICAL - EMERGENCY","MEDICAL - EMERGENCY","MT CON MINE PARKING LOT","",""
"08/02/2018","18:55","218CR0019381","ACCIDENT - INJURY","ACCIDENT - INJURY","MONTANA // I 15 ENTRANCE","",""
"08/02/2018","19:36","218CR0019382","THEFT","THEFT, PURSE SNATCH","1500 FAIRMONT RD","",""
"08/02/2018","19:41","218CR0019383","ALARM - MEDICAL","ALARM - MEDICAL","************","",""
"08/02/2018","19:44","218CR0019384","UNWANTED PERSON","UNWANTED PERSON","************","",""
"08/02/2018","19:47","218CR0019385","THEFT","THEFT, SHOPLIFT","3901 HARRISON","",""
"08/02/2018","20:12","218CR0019386","MEDICAL - ASSIST","MEDICAL - ASSIST","************","",""
"08/02/2018","20:21","218CR0019387","ATL","ATL","CONTINENTAL DR AND YALE AVE","",""
"08/02/2018","20:21","218CR0019388","ALARM - BURGLARY","ALARM - BURGLARY","************","",""
"08/02/2018","20:26","218CR0019389","ALL OTHER","ALL OTHER","828 S COLORADO","",""
"08/02/2018","20:52","218CR0019390","WELFARE CHECK","WELFARE CHECK","1912 TEXAS","",""
"08/02/2018","20:58","218CR0019391","ALL OTHER","ALL OTHER","3500 HARRISON AVE","",""
"08/02/2018","21:11","218CR0019392","BUSINESS CHECK","BUSINESS CHECK","1000 S EXCELSIOR AVE","",""
"08/02/2018","21:23","218CR0019393","SUICIDE ATTEMPT/THREAT","SUICIDE ATTEMPT/THREAT","************","",""
"08/02/2018","21:24","218CR0019394","JUVENILE MISC","JUVENILE MISC","************","",""
"08/02/2018","21:48","218CR0019395","HARASSMENT","HARASSMENT","421 W IRON ST","",""
"08/02/2018","22:11","218CR0019396","DISTURBANCE","DISTURBANCE","76 MISSOULA AVE","",""
"08/02/2018","22:31","218CR0019397","ACCIDENT","CHANGING LANES WHEN UNSAFE","HARRISON AND DEWEY","",""
"08/02/2018","22:34","218CR0019398","MEDICAL - EMERGENCY","MEDICAL - EMERGENCY","1 W PARK PARK ST PARY PALACE","",""
"08/02/2018","22:53","218CR0019399","ALL OTHER","ALL OTHER","70 BASIN CR RD BUTTE TRAP CLUB","",""
"08/02/2018","23:32","218CR0019400","SUSPICIOUS ACTIVITY","SUSPICIOUS ACTIVITY","1800 BLK THORNTON W ALLEY","",""
"08/02/2018","23:41","218CR0019401","SUSPICIOUS ACTIVITY","SUSPICIOUS ACTIVITY","ALUMINUM AND DAKOTA","",""
"08/02/2018","23:58","218CR0019402","ANIMAL COMPLAINT","ANIMAL COMPLAINT","1500 BLK EASY ST","",""
"08/03/2018","00:17","218CR0019403","ATL","ATL","531 S MONTANA","",""
"08/03/2018","00:24","218CR0019404","MEDICAL - EMERGENCY","MEDICAL - EMERGENCY","400 BLK S MAIN BUTTE HIGH SCHO","",""
"08/03/2018","00:44","218CR0019405","HARASSMENT","HARASSMENT","3 BENNETT ST","",""
"08/03/2018","01:23","218CR0019406","SUSPICIOUS ACTIVITY","SUSPICIOUS ACTIVITY","1906 SILVERBOW HOMES","",""
"08/03/2018","01:27","218CR0019407","UNWANTED PERSON","UNWANTED PERSON","************","",""
"08/03/2018","01:45","218CR0019408","DISTURBANCE","DISTURBANCE","76 MISSOULA AVE","",""
"08/03/2018","01:58","218CR0019409","MEDICAL - EMERGENCY","MEDICAL - EMERGENCY","MT TECH NATURAL RESOURCES BLDG","",""
"08/03/2018","02:03","218CR0019410","ALARM - FIRE","ALARM - FIRE","600 S MAIN ST","",""
"08/03/2018","02:09","218CR0019411","SUSPICIOUS ACTIVITY","SUSPICIOUS ACTIVITY","1522 EASY STREET","",""
"08/03/2018","02:23","218CR0019412","ALARM - FIRE","ALARM - FIRE","600 S MAIN ST TOWN PUMP CORP","",""
"08/03/2018","02:28","218CR0019413","SUSPICIOUS ACTIVITY","SUSPICIOUS ACTIVITY","80 CAROUSEL WAY","",""
"08/03/2018","02:32","218CR0019414","DISTURBANCE","DISTURBANCE","1704 SILVERBOW HOMES","",""
"08/03/2018","02:57","218CR0019415","STOLEN VEHICLE","STOLEN VEHICLE","COUNTRY CLUB PARKING LOT","",""
"08/03/2018","03:01","218CR0019416","SUSPICIOUS ACTIVITY","SUSPICIOUS ACTIVITY","ELIZ WARREN AND BLACKTAIL LN","",""
"08/03/2018","03:15","218CR0019417","BURGLARY","BURGLARY","1811 PORTER AVE","",""
"08/03/2018","03:34","218CR0019418","SUSPICIOUS ACTIVITY","SUSPICIOUS ACTIVITY","1118 HOBSON","",""
"08/03/2018","04:07","218CR0019419","DISTURBANCE","DISTURBANCE","1324 HARRISON AVE BUS DEPOT","",""
"08/03/2018","04:11","218CR0019420","SUSPICIOUS ACTIVITY","SUSPICIOUS ACTIVITY","MEADE AND PHILLIPS","",""
"08/03/2018","05:32","218CR0019421","PARKING COMPLAINT","PARKING COMPLAINT","431 N MONTANA","",""
"08/03/2018","07:21","218CR0019423","CIVIL PAPER SERVICE","CIVIL PAPER SERVICE","3941 WYNNE","",""
"08/03/2018","07:33","218CR0019424","CIVIL PAPER SERVICE","CIVIL PAPER SERVICE","436 S MAIN","",""
"08/03/2018","07:39","218CR0019425","CIVIL PAPER SERVICE","CIVIL PAPER SERVICE","303 1/2 S IDAHO","",""
"08/03/2018","07:39","218CR0019426","CIVIL PAPER SERVICE","CIVIL PAPER SERVICE","626 S WASHINGTON ST","",""
"08/03/2018","07:48","218CR0019427","CIVIL PAPER SERVICE","CIVIL PAPER SERVICE","850 W SILVER","",""
"08/03/2018","07:57","218CR0019429","CIVIL PAPER SERVICE","CIVIL PAPER SERVICE","1203 BRITTANIA","",""
 
Monday the 22nd. Affiliate Marketing.
Copyright 2012

©